Location: Decatur Area Astronomy Club
(40.0275°N, 88.7810°W)
Time: 07:20:29
(UTC-06:00)

Daily predictions for brighter satellites

Satellite Brightness Start Highest point End
(mag) Time Altitude Azimuth Time Altitude Azimuth Time Altitude Azimuth
Cosmos 304 Rocket 3.9 16:53:44 10° N 16:58:27 54° ENE 17:03:07 10° SE
Cosmos 1606 4.0 16:57:01 10° SE 16:59:51 20° E 17:02:41 10° NE
Lacrosse 5 4.0 17:00:15 10° NW 17:03:10 15° NNW 17:06:05 10° NNE
Cosmos 1908 Rocket 4.1 17:00:49 10° N 17:04:52 37° ENE 17:08:52 10° SE
Cosmos 1733 Rocket 3.2 17:00:43 10° N 17:05:12 87° W 17:09:39 10° S
COSMOS 2455 3.2 16:59:34 10° SW 17:05:32 67° WNW 17:11:33 10° NNE
Cosmos 1933 4.4 17:03:01 10° SSW 17:06:56 49° W 17:10:52 10° N
Cosmos 1814 Rocket 4.0 17:01:39 10° NNW 17:07:02 77° ENE 17:12:23 10° SSE
Cosmos 1484 Rocket 2.9 17:03:38 10° SSE 17:07:23 52° ENE 17:11:13 10° N
CZ-4 R/B 1.8 17:05:35 10° SE 17:09:08 37° ENE 17:12:41 10° N
SL-27 R/B 3.1 17:07:47 10° N 17:10:47 30° ENE 17:13:48 10° SE
IRAS Rocket 4.3 17:06:13 10° SSE 17:11:47 86° WSW 17:17:19 10° NNW
Cosmos 540 Rocket 4.2 17:08:16 10° N 17:12:48 30° ENE 17:17:17 10° ESE
CSL-04 Rocket 3.6 17:08:00 10° SSE 17:13:17 81° ENE 17:18:40 10° NNW
Cosmos 2233 Rocket 4.0 17:09:53 10° S 17:16:07 78° E 17:22:21 10° N
Cosmos 1340 4.4 17:13:06 10° SW 17:16:32 34° WNW 17:20:01 10° N
Cosmos 1862 Rocket 4.0 17:12:32 10° SSW 17:16:56 68° W 17:21:24 10° N
USA 234 4.2 17:11:42 10° ENE 17:17:22 31° SE 17:23:01 10° S
Cosmos 44 4.3 17:13:48 10° N 17:17:35 24° NE 17:21:31 10° ESE
Cosmos 2082 Rocket 2.8 17:13:24 10° N 17:18:36 35° ENE 17:23:44 10° SE
Ariane Rocket 3.0 17:15:07 10° SSE 17:20:12 83° ENE 17:25:18 10° NNW
Cosmos 1437 4.2 17:20:07 10° SSW 17:23:06 38° WNW 17:26:06 10° N
Cosmos 841 Rocket 3.5 17:20:33 10° NNW 17:25:51 76° ENE 17:31:06 10° SSE
BREEZE-M DEB (TANK) 3.7 17:24:37 10° NNW 17:26:12 15° NNE 17:27:37 13° NE
Sich 1 Rocket 3.7 17:22:12 10° N 17:26:34 54° E 17:30:56 10° SSE
Meteor 1-20 Rocket 4.1 17:21:12 10° N 17:26:43 63° ENE 17:32:07 10° SSE
ERS-2 2.9 17:23:29 10° SE 17:26:45 31° ENE 17:30:02 10° N
Okean 1-7 3.5 17:23:35 10° SSE 17:27:38 38° E 17:31:43 10° NNE
AQUARIUS 4.2 17:25:01 10° SSE 17:29:30 90° W 17:34:02 10° NNW
Meteor 1-25 Rocket 4.2 17:23:51 10° N 17:29:43 75° E 17:35:29 10° SSE
ALOS 3.2 17:28:38 10° SE 17:32:29 26° ENE 17:36:21 10° NNE
Cosmos 1782 2.9 17:29:33 10° S 17:33:28 54° E 17:37:24 10° NNE
Cosmos 405 Rocket 3.7 17:31:28 10° SSE 17:34:36 25° E 17:36:33 16° NE
Cosmos 1486 Rocket 4.3 17:33:24 10° SSW 17:38:35 71° WNW 17:43:51 10° NNE
SMAP 3.4 17:35:05 10° S 17:39:42 69° WSW 17:44:21 10° NNW
Cosmos 1633 2.4 17:42:44 10° N 17:46:25 71° E 17:50:04 10° SSE
BREEZE-M DEB (TANK) 4.1 17:39:05 10° WNW 17:47:20 47° SW 17:50:40 10° SSE
Cosmos 1782 Rocket 3.4 17:45:16 10° N 17:49:37 68° E 17:53:57 10° SSE
USA 116 4.0 17:46:43 10° N 17:51:06 73° WNW 17:54:55 10° SSW
CZ-4C R/B 3.4 17:46:11 10° NNW 17:52:44 38° NE 17:58:04 17° ESE
Meteor 1-27 Rocket 4.2 17:49:04 10° SSE 17:54:34 42° E 18:00:06 10° NNE
CENTAUR R/B 4.3 17:49:27 10° W 17:54:36 26° NW 18:00:19 10° NNE
YAOGAN 1 2.5 17:50:30 10° SSE 17:54:50 87° WSW 17:59:11 10° NNW
COSMO-SKYMED 1 2.5 17:51:42 10° NNE 17:56:02 68° ESE 18:00:20 10° S
Cosmos 1354 Rocket 3.9 17:51:27 10° SSW 17:56:44 85° ESE 18:02:02 10° NNE
FENGYUN 3A 3.8 17:52:08 10° SE 17:57:18 47° ENE 18:02:29 10° N
Cosmos 1891 Rocket 4.4 17:53:13 10° S 17:59:16 62° E 18:05:16 10° NNE
SPOT 3 Rocket 3.5 17:58:12 10° SSE 18:03:21 63° ENE 18:08:31 10° N
USA 229 DEB 4.5 17:58:02 10° SSE 18:03:36 28° ESE 18:05:14 26° E
USA 229 4.5 17:58:09 10° SSE 18:03:43 28° ESE 18:05:17 26° E
Meteor 1-10 Rocket 4.2 17:58:40 10° S 18:04:20 86° E 18:10:09 10° N
Tiangong 1 2.9 18:08:21 10° SSW 18:09:26 16° S 18:09:26 16° S
Cosmos 1833 Rocket 2.7 18:06:45 10° NNW 18:12:25 85° WSW 18:18:02 10° SSE
Cosmos 2369 Rocket 4.0 18:10:14 10° SE 18:11:27 14° SE 18:11:27 14° SE
Nadezhda 4 Rocket 4.0 18:09:40 10° N 18:15:37 50° ENE 18:21:32 10° SSE
Cosmos 2221 Rocket 3.9 18:12:04 10° SSW 18:16:25 65° W 18:20:49 10° N
Cosmos 2297 4.0 18:12:55 10° SSW 18:18:36 68° WNW 18:23:47 13° NNE
OAO 3 Rocket 4.2 18:15:51 10° SW 18:20:17 34° SSE 18:21:32 30° SE
Cosmos 2034 Rocket 3.9 18:15:04 10° S 18:21:26 80° E 18:27:48 10° N
Cosmos 2278 Rocket 4.0 18:17:35 10° WSW 18:22:22 28° NW 18:27:12 10° N
Meteor 2-20 4.3 18:20:50 10° N 18:26:57 79° E 18:33:00 10° S
Timation 2 Rocket 4.1 18:21:45 10° NNW 18:28:24 55° ENE 18:31:12 33° ESE
NOAA 12 4.1 18:24:19 10° SSE 18:29:39 86° WSW 18:34:59 10° NNW
Cosmos 1092 Rocket 4.1 18:27:44 10° N 18:33:42 49° ENE 18:39:38 10° SSE
BREEZE-M R/B 3.8 18:31:41 10° WNW 18:34:39 44° SW 18:37:04 24° SSE
Okean 2 Rocket 3.6 18:30:12 10° NNW 18:34:40 59° W 18:39:05 10° S
Cosmos 44 Rocket 3.2 18:30:25 10° NNW 18:35:20 85° WSW 18:37:32 34° SSE
Meteor 1-11 Rocket 3.7 18:29:45 10° N 18:35:38 87° E 18:41:21 10° S
Cosmos 1441 Rocket 3.6 18:32:00 10° SSW 18:35:55 65° W 18:36:58 44° NNW
Thor Agena Rocket 3.7 18:36:30 51° SE 18:36:30 51° SE 18:40:58 10° S
GPS 2-05 Rocket1 4.5 18:33:15 10° WSW 18:35:12 26° SSW 18:35:12 26° SSW
Cosmos 405 3.6 18:35:36 10° NNW 18:39:08 57° W 18:42:39 10° S
Cosmos 292 Rocket 4.1 18:37:20 10° NNW 18:42:03 64° WSW 18:46:44 10° S
PKM 4.2 18:36:41 10° SW 18:44:46 85° NW 18:45:04 77° NNE
Lacrosse 5 4.2 18:46:29 10° NNW 18:47:38 11° N 18:47:38 11° N
Cosmos 968 Rocket 3.8 18:53:26 10° SSW 18:58:33 64° WNW 18:59:38 51° NNW
Cosmos 44 4.2 18:54:26 10° NW 18:58:58 46° WSW 19:01:17 26° S
USA 234 3.3 18:58:41 47° NNE 19:00:40 72° NW 19:07:09 10° WSW
Cosmos 2082 Rocket 3.8 18:57:36 10° NW 19:02:35 32° WSW 19:07:32 10° SSW
ALOS 4.1 19:05:41 10° SSW 19:09:47 30° W 19:13:55 10° NW
CZ-4C R/B 3.4 19:34:28 10° NW 19:41:38 57° WSW 19:43:23 48° SSW
USA 229 DEB 4.4 19:47:30 10° SW 19:52:44 48° W 19:52:44 48° W
USA 229 4.4 19:47:36 10° SW 19:52:47 48° W 19:52:47 48° W
Cosmos 2369 Rocket 4.4 19:52:01 10° SW 19:53:19 17° SW 19:53:19 17° SW
